Flag for Germany Weather past 2 weeks in Güstrow, Mecklenburg-Western Pomerania, Germany

Now
41 °F

Partly sunny.


Feels Like: 32 °F
Forecast: 33 / 42 °F
Wind: 18 mph from West

Location: Laage

Current Time: Mar 3, 2015 at 12:13:47 PM

Latest Report: Mar 3, 2015 at 11:20 AM


Visibility: N/A

Pressure: 29.89 "Hg

Humidity: 70%

Dew point: 32 °F

Location of GüstrowLocation

Historic Weather in Güstrow — Graph

°F

Güstrow temperature yesterday

Maximum temperature yesterday: 43 °F (at 3:20 PM)
Minimum temperature yesterday: 36 °F (at 12:20 AM)
Average temperature yesterday: 39 °F

Past Weeks' High & Low Weather Summary

 TemperatureHumidityPressure
High48 °F (Feb 26, 1:20 PM)100% (Feb 18, 2:20 AM)30.66 "Hg (Feb 18, 2:20 AM)
Low27 °F (Feb 17, 5:20 AM)43% (Feb 19, 1:20 PM)29.24 "Hg (Feb 21, 2:20 PM)
Average37 °F82%29.88 "Hg
* Reported Feb 16 10:20 AM — Mar 3 10:20 AM, Güstrow, Weather by CustomWeather, © 2015

Note: Actual official high and low records may vary slightly from our data, if they occured in-between our weather recording intervals... More about our weather records

Advertising

Güstrow weather history for previous 24 hours

 ConditionsComfort  
Time TempWeatherWind HumidityBarometerVisibility
10:20 AM
Tue, Mar 3
39 °FScattered clouds.18 mph75%29.89 "HgN/A
9:20 AM37 °FPassing clouds.15 mph81%29.86 "HgN/A
8:20 AM37 °FScattered clouds.14 mph87%29.83 "HgN/A
7:20 AM36 °FPartly sunny.15 mph93%29.80 "HgN/A
6:20 AM36 °FLight rain. Passing clouds.14 mph93%29.80 "HgN/A
5:20 AM36 °FPassing clouds.14 mph93%29.77 "HgN/A
4:20 AM36 °FPassing clouds.17 mph87%29.74 "HgN/A
3:20 AM36 °FPassing clouds.12 mph87%29.71 "HgN/A
2:20 AM36 °FPassing clouds.12 mph81%29.68 "HgN/A
1:20 AM37 °FPassing clouds.15 mph81%29.68 "HgN/A
12:20 AM37 °FPassing clouds.15 mph81%29.65 "HgN/A
11:20 PM
Mon, Mar 2
37 °FPassing clouds.14 mph81%29.62 "HgN/A
10:20 PM37 °FPassing clouds.14 mph81%29.62 "HgN/A
9:20 PM37 °FPassing clouds.13 mph75%29.59 "HgN/A
8:20 PM39 °FPassing clouds.16 mph70%29.56 "HgN/A
7:20 PM39 °FPassing clouds.16 mph75%29.56 "HgN/A
6:20 PM41 °FPassing clouds.23 mph70%29.53 "HgN/A
5:20 PM43 °FBroken clouds.21 mph66%29.50 "HgN/A
4:20 PM43 °FSprinkles. Partly sunny.17 mph66%29.47 "HgN/A
3:20 PM43 °FBroken clouds.22 mph71%29.45 "HgN/A
2:20 PM41 °FBroken clouds.23 mph81%29.42 "HgN/A
1:20 PM39 °FPartly sunny.21 mph87%29.42 "Hg5 mi
12:20 PM41 °FPartly sunny.17 mph87%29.39 "HgN/A
Weather by CustomWeather, © 2015

See weather overviewHow to use our weather pages